Starlink 11130

operational
NORAD ID: 59950 Int'l Des: 2024-107 Owner: SPXS Country: US Constellation: starlink
LEOCIRCULAR

Über Starlink 11130

Beschreibung wird geladen...

Live-Position

3D-Globus wird geladen...

Nächste Überflüge

Höhenverlauf

Altitude vs Time

uPlot chart will show altitude changes over time

Zweizeiliger Elementsatz

1 59950U 24107F 25260.63395747 .00003638 00000-0 34867-4 0 9993
2 59950 53.1588 24.5103 0001518 82.8741 277.2450 15.69714925 74962
Epoch: 17. Sept. 2025 • Age: 28 hours

Aktueller Status

Höhe 361.9 km
Geschwindigkeit 7.69 km/s
Subsatellitenpunkt -6.71°S, 87.02°W
Startdatum 5. Juni 2024
Alter 1.2 years
Typ internet

Technische Details

Klassifizierung Payload
Masse 960.00 kg
Trockenmasse 910.00 kg
Gesamtmasse 960.00 kg
Länge 0.30 m
Durchmesser 4.10 m
Spannweite 29.00 m
Form Box + pan
Hersteller SPXS
Bus-Typ Starlink V2MD
Phasenstatus In Orbit
Besitzer/Staat SPXS/US

Große Konstellationen

Loading constellations...